Satellite: OKEAN-4
Catalog number: 23317
Epoch time:      09217.70173606
Element set:    0983
Inclination:      082.5415 deg
RA of node:       288.2829 deg
Eccentricity:    0.0021423
Arg of perigee:   197.2402 deg
Mean anomaly:     162.8110 deg
Mean motion:   14.82712185 rev/day
Decay rate:       1.42e-06 rev/day^2
Epoch rev:           79970
Checksum:              297

Satellite: NOAA-14
Catalog number: 23455
Epoch time:      09218.06531936
Element set:    0715
Inclination:      098.9066 deg
RA of node:       295.5656 deg
Eccentricity:    0.0010093
Arg of perigee:   053.6764 deg
Mean anomaly:     306.5340 deg
Mean motion:   14.13766688 rev/day
Decay rate:       -8.0e-08 rev/day^2
Epoch rev:           75297
Checksum:              332

Satellite: NOAA-15
Catalog number: 25338
Epoch time:      09217.84355300
Element set:    0031
Inclination:      098.5866 deg
RA of node:       205.9696 deg
Eccentricity:    0.0009522
Arg of perigee:   274.2876 deg
Mean anomaly:     085.7179 deg
Mean motion:   14.24778052 rev/day
Decay rate:       1.79e-06 rev/day^2
Epoch rev:           58384
Checksum:              343

Satellite: RESURS
Catalog number: 25394
Epoch time:      09218.60377637
Element set:     278
Inclination:      098.3375 deg
RA of node:       248.3801 deg
Eccentricity:    0.0002513
Arg of perigee:   064.2595 deg
Mean anomaly:     295.8845 deg
Mean motion:   14.24187287 rev/day
Decay rate:       -1.0e-07 rev/day^2
Epoch rev:           57557
Checksum:              328

Satellite: FENGYUN1
Catalog number: 25730
Epoch time:      09218.02886913
Element set:    0868
Inclination:      098.7556 deg
RA of node:       186.6991 deg
Eccentricity:    0.0023496
Arg of perigee:   073.7717 deg
Mean anomaly:     286.6035 deg
Mean motion:   14.07944482 rev/day
Decay rate:       8.26e-06 rev/day^2
Epoch rev:           52733
Checksum:              351

Satellite: OKEAN-0
Catalog number: 25860
Epoch time:      09217.53713508
Element set:     749
Inclination:      097.7900 deg
RA of node:       196.7660 deg
Eccentricity:    0.0001725
Arg of perigee:   054.0777 deg
Mean anomaly:     306.0585 deg
Mean motion:   14.73582818 rev/day
Decay rate:        3.0e-07 rev/day^2
Epoch rev:           54041
Checksum:              306

Satellite: NOAA-16
Catalog number: 26536
Epoch time:      09217.87637370
Element set:    0509
Inclination:      099.1767 deg
RA of node:       222.7477 deg
Eccentricity:    0.0011192
Arg of perigee:   137.7982 deg
Mean anomaly:     222.4040 deg
Mean motion:   14.12526594 rev/day
Decay rate:      -1.78e-06 rev/day^2
Epoch rev:           45731
Checksum:              324

Satellite: NOAA-17
Catalog number: 27453
Epoch time:      09218.02635444
Element set:    0513
Inclination:      098.4805 deg
RA of node:       275.3710 deg
Eccentricity:    0.0011235
Arg of perigee:   343.4716 deg
Mean anomaly:     016.6084 deg
Mean motion:   14.24081510 rev/day
Decay rate:        8.9e-07 rev/day^2
Epoch rev:           36984
Checksum:              294

Satellite: NOAA-18
Catalog number: 28654
Epoch time:      09218.02986077
Element set:    0000
Inclination:      098.9077 deg
RA of node:       160.8881 deg
Eccentricity:    0.0013615
Arg of perigee:   219.8090 deg
Mean anomaly:     140.2090 deg
Mean motion:   14.11277273 rev/day
Decay rate:       3.20e-06 rev/day^2
Epoch rev:           21698
Checksum:              302

Satellite: NOAA-19
Catalog number: 33591
Epoch time:      09218.02064335
Element set:    0204
Inclination:      098.7464 deg
RA of node:       162.4910 deg
Eccentricity:    0.0015177
Arg of perigee:   100.6381 deg
Mean anomaly:     259.6493 deg
Mean motion:   14.10976234 rev/day
Decay rate:       -2.8e-07 rev/day^2
Epoch rev:           02546
Checksum:              295

/EX
SB KEPS @ AMSAT  $ORB09218.M
Orbital Elements  09218.MISC

HR AMSAT ORBITAL ELEMENTS FOR MANNED AND MISCELLANEOUS SATELLITES
FROM WA5QGD FORT WORTH,TX August 6, 2009
Send Subscribe/unsubscribe to KEPS at 
http://www.amsat.org/mailman/listinfo/keps
BID: ORB09218.M
TO ALL RADIO AMATEURS BT

Satellite: HUBBLE
Catalog number: 20580
Epoch time:      09216.05936093
Element set:    0430
Inclination:      028.4681 deg
RA of node:       149.8546 deg
Eccentricity:    0.0003459
Arg of perigee:   072.7348 deg
Mean anomaly:     287.3621 deg
Mean motion:   15.00819410 rev/day
Decay rate:       2.57e-06 rev/day^2
Epoch rev:           85705
Checksum:              299

Satellite: ISS
Catalog number: 25544
Epoch time:      09218.76983787
Element set:     364
Inclination:      051.6391 deg
RA of node:       047.1561 deg
Eccentricity:    0.0007839
Arg of perigee:   301.7887 deg
Mean anomaly:     058.2878 deg
Mean motion:   15.73514354 rev/day
Decay rate:      6.047e-05 rev/day^2
Epoch rev:           61392
Checksum:              340

Satellite: CO-58
Catalog number: 28895
Epoch time:      09217.68999802
Element set:    0363
Inclination:      098.0513 deg
RA of node:       106.9054 deg
Eccentricity:    0.0017786
Arg of perigee:   189.8623 deg
Mean anomaly:     170.2258 deg
Mean motion:   14.59785994 rev/day
Decay rate:       1.03e-06 rev/day^2
Epoch rev:           20095
Checksum:              360

